[TLELIST] Archives

 

[list_settings.list_name] Current TLEs

July 9th 2012 PST

HST 1 20580U 90037B 12190.17968982 .00001568 00000-0 10252-3 0 317 2 20580 028.4715 006.1595 0003028 282.9635 077.0692 15.02601390 17891 ISS (ZARYA) 1 25544U 98067A 12191.48431537 .00009694 00000-0 14329-3 0 8921 2 25544 051.6407 010.9296 0007761 135.4907 266.7715 15.56012658781483 CXO 1 25867U 99040B 12192.74680283 -.00001282 00000-0 00000+0 0 7613 2 25867 072.7311 002.9353 8746685 278.2290 000.1785 00.37802090 9242 ____________________________________________________________________ These 2-Line ...Continue Reading

[list_settings.list_name] Current TLEs

July 8th 2012 PST

HST 1 20580U 90037B 12190.17968982 .00001568 00000-0 10252-3 0 317 2 20580 028.4715 006.1595 0003028 282.9635 077.0692 15.02601390 17891 ISS (ZARYA) 1 25544U 98067A 12190.39741667 .00009588 00000-0 14192-3 0 8850 2 25544 051.6406 016.3635 0007834 132.7367 297.1043 15.55990012781312 CXO 1 25867U 99040B 12192.74680283 -.00001282 00000-0 00000+0 0 7613 2 25867 072.7311 002.9353 8746685 278.2290 000.1785 00.37802090 9242 ____________________________________________________________________ These 2-Line ...Continue Reading

[list_settings.list_name] Current TLEs

July 7th 2012 PST

HST 1 20580U 90037B 12186.92507805 +.00001339 +00000-0 +85747-4 0 00305 2 20580 028.4711 027.4605 0003503 241.0719 118.9529 15.02591919017408 ISS (ZARYA) 1 25544U 98067A 12189.29443287 .00009524 00000-0 14114-3 0 8791 2 25544 051.6410 021.8775 0007961 128.6010 238.7453 15.55967509781145 CXO 1 25867U 99040B 12182.16303372 -.00001218 00000-0 00000+0 0 7595 2 25867 072.6383 003.7028 8751813 278.1710 359.7829 00.37803184 9206 ____________________________________________________________________ These 2-Line ...Continue Reading

[list_settings.list_name] Current TLEs

July 6th 2012 PST

HST 1 20580U 90037B 12185.92876857 +.00001316 +00000-0 +84095-4 0 00298 2 20580 028.4714 033.9796 0003503 231.8311 128.2137 15.02589516017251 ISS (ZARYA) 1 25544U 98067A 12186.88741898 +.00009202 +00000-0 +13684-3 0 08673 2 25544 051.6402 033.9136 0007946 120.0314 075.7168 15.55917966780768 CXO 1 25867U 99040B 12182.16303372 -.00001218 00000-0 00000+0 0 7595 2 25867 072.6383 003.7028 8751813 278.1710 359.7829 00.37803184 9206 ____________________________________________________________________ These 2-Line ...Continue Reading

[list_settings.list_name] Current TLEs

July 5th 2012 PST

HST 1 20580U 90037B 12184.00256004 .00001042 00000-0 63995-4 0 283 2 20580 028.4708 046.5876 0003381 212.3128 147.7338 15.02584273 16968 ISS (ZARYA) 1 25544U 98067A 12185.90834297 +.00009540 +00000-0 +14169-3 0 08619 2 25544 051.6414 038.8073 0008191 117.6004 350.4396 15.55899725780618 CXO 1 25867U 99040B 12182.16303372 -.00001218 00000-0 00000+0 0 7595 2 25867 072.6383 003.7028 8751813 278.1710 359.7829 00.37803184 9206 ____________________________________________________________________ These 2-Line ...Continue Reading

[list_settings.list_name] Current TLEs

July 4th 2012 PST

HST 1 20580U 90037B 12184.00256004 .00001042 00000-0 63995-4 0 283 2 20580 028.4708 046.5876 0003381 212.3128 147.7338 15.02584273 16968 ISS (ZARYA) 1 25544U 98067A 12185.30605324 .00013289 00000-0 19458-3 0 8587 2 25544 051.6415 041.8181 0008030 114.3404 217.9105 15.55894972780516 CXO 1 25867U 99040B 12182.16303372 -.00001218 00000-0 00000+0 0 7595 2 25867 072.6383 003.7028 8751813 278.1710 359.7829 00.37803184 9206 ____________________________________________________________________ These 2-Line ...Continue Reading

[list_settings.list_name] Current TLEs

July 3rd 2012 PST

HST 1 20580U 90037B 12184.00256004 .00001042 00000-0 63995-4 0 283 2 20580 028.4708 046.5876 0003381 212.3128 147.7338 15.02584273 16968 ISS (ZARYA) 1 25544U 98067A 12185.30605324 .00013289 00000-0 19458-3 0 8576 2 25544 051.6415 041.8181 0008030 114.3404 217.9105 15.55894972780516 CXO 1 25867U 99040B 12182.16303372 -.00001218 00000-0 00000+0 0 7595 2 25867 072.6383 003.7028 8751813 278.1710 359.7829 00.37803184 9206 ____________________________________________________________________ These 2-Line ...Continue Reading

[list_settings.list_name] Current TLEs

July 2nd 2012 PST

HST 1 20580U 90037B 12184.00256004 .00001042 00000-0 63995-4 0 283 2 20580 028.4708 046.5876 0003381 212.3128 147.7338 15.02584273 16968 ISS (ZARYA) 1 25544U 98067A 12184.34400463 .00022219 00000-0 32046-3 0 8511 2 25544 051.6410 046.6253 0008115 111.6027 228.4767 15.55877006780362 CXO 1 25867U 99040B 12182.16303372 -.00001218 00000-0 00000+0 0 7595 2 25867 072.6383 003.7028 8751813 278.1710 359.7829 00.37803184 9206 ____________________________________________________________________ These 2-Line ...Continue Reading

[list_settings.list_name] Current TLEs

July 1st 2012 PST

HST 1 20580U 90037B 12182.07635654 .00000863 00000-0 50819-4 0 270 2 20580 028.4702 059.1926 0003295 193.0645 166.9852 15.02580478 16676 ISS (ZARYA) 1 25544U 98067A 12183.45011574 .00008720 00000-0 12998-3 0 8440 2 25544 051.5968 051.1077 0007601 110.5706 259.4348 15.55936344780231 CXO 1 25867U 99040B 12182.16303372 -.00001218 +00000-0 +00000-0 0 00016 2 25867 072.6383 003.7028 8751813 278.1710 359.7829 00.37803184014730 ____________________________________________________________________ These 2-Line ...Continue Reading

[list_settings.list_name] Current TLEs

June 30th 2012 PST

HST 1 20580U 90037B 12182.07635654 .00000863 00000-0 50819-4 0 270 2 20580 028.4702 059.1926 0003295 193.0645 166.9852 15.02580478 16676 ISS (ZARYA) 1 25544U 98067A 12182.38396413 .00008889 00000-0 13267-3 0 8377 2 25544 051.6407 056.4202 0008298 104.4868 049.8276 15.55867736780062 CXO 1 25867U 99040B 12182.16444118 -.00001218 00000-0 00000+0 0 7588 2 25867 072.6383 003.7032 8751775 278.1711 359.9745 00.37803593 9202 ____________________________________________________________________ These 2-Line ...Continue Reading
  • This mailing list is a public mailing list - anyone may join or leave, at any time.
  • This mailing list is announce-only.

International Space Station (ISS) / Hubble Space Telescope (HST) / Chandra X-Ray Observatory Orbital Data via EMAIL

Privacy Policy:

Private list